Wind_Speed
32 33 33 32 32 33 33 34 34 34 34 35 36 36 35 35 35 35 35 35 35 36 37 38 38 39 39 39 40 40 40 41 41 41 40 41 41 41 41 41 41 41 41 41
33 33 33 33 34 34 35 35 35 35 36 37 37 37 36 36 35 35 35 35 36 37 38 39 39 39 40 41 40 40 41 41 42 42 42 43 42 42 42 42 42 43 43 43
34 33 34 35 34 35 36 36 35 36 37 38 40 39 37 37 36 36 36 36 37 37 38 39 40 40 41 41 41 41 42 43 43 43 44 43 43 43 43 43 43 44 44 44
34 34 34 35 35 36 36 36 37 38 38 39 40 42 37 38 38 37 37 37 38 38 39 39 40 41 41 41 42 42 43 43 44 44 44 44 44 44 44 44 44 45 45 45
35 35 35 36 35 36 37 37 38 39 40 41 40 43 39 38 38 38 38 38 39 39 39 40 40 41 41 42 42 42 43 43 44 44 44 44 44 44 45 45 45 45 46 46
36 36 36 36 36 37 38 39 40 41 42 43 40 42 40 37 37 37 38 39 39 40 40 40 40 41 41 42 42 42 43 43 44 44 44 44 44 44 45 45 45 45 46 46
37 37 37 37 37 38 39 40 41 42 43 43 41 43 41 38 37 38 38 39 39 39 40 40 41 41 41 42 42 42 42 43 43 42 42 43 43 44 44 45 46 46 46 47
37 37 37 37 37 38 39 40 41 42 44 43 42 43 41 39 38 38 38 38 38 39 40 40 41 41 41 41 42 42 42 42 42 41 42 42 43 44 44 45 46 46 47 48
37 37 36 36 36 37 38 39 39 41 43 44 44 43 40 38 38 38 38 38 38 38 39 39 40 40 41 42 42 41 41 41 42 42 41 42 43 44 44 45 46 47 48 48
36 38 36 36 36 36 37 38 38 40 42 44 44 43 41 38 38 38 37 37 37 38 38 38 38 39 40 41 41 41 41 41 42 42 42 42 43 44 45 45 46 46 47 48
36 38 38 37 36 36 36 37 38 40 42 44 44 42 40 38 37 37 37 37 37 37 38 38 38 39 40 41 41 41 42 42 42 43 43 43 43 44 44 45 46 46 47 47
35 38 38 38 38 37 37 37 38 40 41 43 44 42 39 38 38 38 37 38 38 37 37 37 37 38 39 40 41 41 42 42 42 43 43 44 44 44 44 45 46 47 47 47
35 37 38 38 38 38 38 37 37 39 40 42 43 41 39 39 38 38 37 38 38 37 37 37 37 37 38 39 40 40 41 42 43 43 44 44 45 45 45 46 46 47 47 47
35 36 37 38 38 38 38 38 38 40 41 42 42 40 38 39 39 39 39 39 39 39 38 38 38 38 38 38 39 39 40 42 42 43 44 44 45 45 46 46 46 46 47 47
35 36 37 37 38 38 38 38 38 40 41 42 41 40 38 39 39 39 40 40 40 39 38 38 38 39 39 39 39 40 40 41 42 42 43 44 45 46 46 46 46 47 47 48
36 37 37 37 37 38 39 38 39 39 40 41 41 40 39 39 39 39 39 39 39 39 39 38 39 39 39 39 40 40 40 40 40 41 42 43 44 45 46 46 47 47 48 48
38 38 39 38 37 38 39 37 38 39 40 41 41 40 39 39 38 38 38 37 37 37 37 37 38 38 39 39 39 39 39 39 39 40 41 42 42 43 44 45 47 47 48 48
36 36 38 38 38 38 36 36 37 38 39 40 41 40 40 38 38 37 37 36 36 36 36 37 37 37 38 38 38 38 38 39 39 40 41 41 41 42 43 44 46 47 47 47
34 34 35 36 37 37 35 35 35 36 36 37 38 38 38 37 37 36 36 35 35 36 36 37 36 36 37 37 37 38 39 39 39 40 40 41 41 42 43 44 45 45 46 46
32 32 32 33 35 36 34 33 34 35 35 34 35 36 36 37 37 35 35 35 36 36 36 37 37 37 37 37 37 38 38 38 38 39 39 40 41 42 43 44 44 45 46 46
30 30 31 32 34 35 34 33 33 33 33 32 33 34 35 36 36 35 35 35 35 35 36 36 37 37 37 37 37 37 37 37 37 38 39 40 41 41 42 43 44 45 45 45
29 29 30 31 32 32 32 33 33 33 33 33 33 33 34 34 34 34 35 35 36 35 36 36 36 36 36 37 37 37 37 38 38 39 39 40 40 41 42 43 44 44 44 43
28 28 29 30 31 32 32 33 33 33 33 34 34 34 33 33 34 34 35 35 36 36 36 37 36 36 36 36 37 37 38 38 39 39 39 40 40 41 42 42 42 42 42 42
27 28 30 31 32 32 32 33 33 33 34 34 34 34 34 34 34 35 35 36 37 37 37 37 37 36 36 36 36 36 37 38 39 39 39 39 39 40 40 39 39 40 40 41
28 29 30 31 31 32 32 33 33 33 34 34 35 35 34 34 34 34 34 34 36 37 37 37 37 36 36 36 36 36 36 37 37 37 38 38 37 38 38 38 38 39 39 39
29 30 31 30 30 31 32 33 33 34 34 35 34 34 34 33 33 33 33 34 35 35 35 35 35 35 35 35 35 35 35 36 36 36 37 37 36 37 37 37 37 37 37 38
Wind_Direction
262 263 264 266 268 270 271 271 271 271 270 270 269 267 266 266 266 266 266 266 266 266 265 265 266 267 267 267 267 267 266 266 265 265 264 264 263 262 261 262 261 261 262 262
263 264 265 266 267 268 269 271 271 271 271 271 269 268 267 266 267 267 268 268 268 267 266 267 267 268 268 268 267 267 267 266 266 265 265 264 264 263 263 262 262 261 262 263
265 266 266 266 267 268 269 271 272 272 271 271 271 269 268 268 268 268 269 270 269 269 269 268 269 269 269 269 268 268 267 266 266 265 265 265 264 264 263 263 262 262 263 263
264 265 266 265 266 268 270 271 272 272 272 272 272 272 268 268 268 270 271 271 270 270 270 270 270 270 271 270 268 268 268 267 266 266 266 265 265 264 263 263 263 263 263 264
264 264 266 266 266 267 269 270 271 272 272 272 273 274 271 269 269 271 272 271 271 270 270 270 270 270 270 269 269 268 268 268 267 267 266 266 265 264 264 264 264 264 264 264
264 265 266 266 266 267 268 269 271 272 272 272 273 275 274 272 273 272 272 272 272 271 270 270 269 270 270 270 269 269 269 269 268 268 267 266 265 264 264 264 264 264 264 265
264 264 265 266 265 265 267 268 270 272 272 274 276 275 275 276 275 275 274 273 273 273 271 270 270 270 270 270 270 270 269 269 268 268 267 266 265 265 265 265 264 265 266 266
266 266 265 266 267 267 267 268 270 273 275 276 276 275 276 278 278 276 275 274 273 272 272 270 269 269 269 269 270 269 268 268 267 267 267 266 266 266 266 266 266 266 266 267
268 267 267 267 268 268 269 269 270 271 274 275 276 277 277 279 279 278 277 275 274 273 272 271 269 269 268 268 269 269 268 267 267 267 267 267 266 266 266 267 267 267 267 267
268 268 267 268 269 269 270 271 271 271 272 275 277 277 280 280 281 280 278 277 276 275 274 272 271 269 268 268 268 268 268 267 266 267 267 267 267 267 267 267 268 268 268 268
269 269 269 268 269 270 270 270 270 270 271 273 276 279 281 281 281 280 279 278 277 276 275 275 272 270 269 268 269 269 268 267 266 267 267 267 267 267 268 269 268 268 268 269
270 270 270 269 269 270 270 271 271 271 272 274 276 278 280 280 280 280 279 278 277 276 276 275 274 271 270 270 270 269 268 267 267 267 267 267 268 269 270 270 269 269 269 269
272 272 272 271 270 270 270 270 271 271 272 273 275 277 279 279 279 279 278 277 276 276 275 274 273 273 272 272 271 270 268 267 267 268 269 269 269 270 270 270 270 270 271 271
272 272 272 272 273 272 271 271 271 271 272 273 274 277 277 277 277 276 275 276 276 276 275 274 273 273 273 273 271 270 270 269 269 270 270 270 270 270 270 270 270 271 272 272
273 273 272 272 272 271 271 270 271 271 272 274 275 275 275 275 275 276 276 276 276 275 274 274 274 274 273 272 272 272 271 271 271 271 271 270 271 271 271 271 271 271 272 273
274 275 274 272 273 272 271 271 272 273 274 275 275 275 276 275 275 277 277 277 277 276 276 275 275 275 274 272 272 273 273 273 272 271 271 271 272 272 272 272 272 272 273 273
276 278 277 276 275 274 273 274 274 275 276 277 277 276 275 275 275 275 276 277 277 277 276 276 276 275 274 273 272 272 273 273 273 272 272 272 273 274 274 274 274 273 274 274
279 279 278 277 276 275 277 277 276 277 278 279 278 277 276 276 275 274 274 275 276 277 277 277 277 275 273 273 273 273 274 273 273 273 273 274 274 275 275 275 275 275 275 276
280 280 280 279 278 277 278 280 280 280 279 279 278 277 276 276 274 274 274 275 277 277 277 277 277 277 276 275 275 274 274 274 274 274 274 274 274 275 276 277 277 277 277 278
280 278 278 278 278 280 282 283 283 283 282 281 280 278 277 275 275 275 276 276 277 278 278 277 277 277 277 276 276 276 276 275 275 275 276 275 275 276 277 279 279 279 279 279
279 277 275 277 279 281 283 284 286 286 285 283 281 278 277 276 276 275 276 276 276 277 277 278 278 278 277 277 277 277 277 277 277 277 278 278 278 278 279 280 280 280 280 279
278 278 277 278 279 281 283 283 283 284 284 283 282 281 280 279 278 277 277 276 276 276 277 278 278 278 278 278 278 278 278 277 277 279 279 280 280 280 281 281 282 281 279 278
277 278 278 279 280 282 283 282 282 283 282 282 283 283 281 280 279 278 278 277 277 277 277 278 279 279 278 278 278 278 278 279 279 280 280 281 280 281 282 282 282 281 280 280
277 277 279 280 281 282 282 282 282 282 282 282 283 283 282 281 281 281 279 278 277 277 279 279 278 278 278 279 279 279 279 279 279 280 281 281 281 282 283 283 283 282 281 281
278 278 280 282 283 282 282 283 284 283 283 283 284 284 283 282 282 281 280 280 280 280 280 280 279 278 278 279 279 280 280 280 281 281 282 282 282 283 284 284 284 284 283 282
278 279 280 282 282 283 283 284 284 283 283 283 283 283 283 283 282 282 281 281 281 281 280 280 280 280 279 280 280 280 281 281 282 283 283 284 284 284 284 284 285 285 284 284
Height
5701 5702 5703 5704 5704 5704 5703 5703 5703 5704 5702 5702 5701 5702 5703 5702 5703 5703 5704 5704 5704 5705 5705 5704 5705 5705 5705 5705 5706 5706 5706 5707 5707 5708 5708 5708 5709 5710 5711 5711 5712 5713 5714 5715
5693 5694 5696 5695 5695 5694 5694 5694 5695 5695 5694 5692 5692 5693 5694 5693 5694 5695 5695 5695 5695 5695 5695 5695 5695 5695 5695 5695 5695 5695 5695 5696 5696 5697 5697 5698 5698 5699 5700 5701 5701 5702 5703 5704
5684 5687 5686 5686 5686 5686 5685 5686 5686 5685 5684 5682 5682 5683 5685 5685 5685 5686 5686 5686 5686 5686 5685 5685 5685 5684 5684 5684 5684 5684 5684 5684 5685 5685 5685 5686 5687 5688 5689 5689 5690 5691 5691 5693
5675 5677 5677 5676 5677 5677 5677 5677 5676 5675 5674 5673 5672 5671 5676 5676 5676 5677 5677 5676 5676 5676 5675 5675 5674 5674 5674 5673 5673 5673 5673 5673 5673 5673 5674 5674 5675 5676 5677 5677 5678 5679 5680 5681
5666 5667 5667 5667 5668 5667 5667 5667 5666 5665 5663 5662 5662 5660 5666 5667 5667 5668 5667 5666 5666 5665 5664 5664 5663 5663 5662 5662 5661 5661 5661 5661 5661 5662 5662 5662 5663 5664 5664 5665 5666 5667 5668 5668
5657 5657 5658 5658 5659 5658 5657 5657 5656 5654 5653 5652 5655 5652 5653 5658 5658 5658 5657 5656 5655 5654 5653 5653 5652 5652 5651 5650 5650 5650 5650 5650 5650 5650 5650 5650 5651 5651 5652 5653 5653 5654 5655 5656
5647 5648 5648 5648 5648 5648 5648 5648 5646 5644 5642 5643 5645 5642 5644 5648 5648 5647 5647 5646 5644 5643 5643 5642 5642 5641 5640 5640 5639 5639 5638 5639 5638 5638 5638 5638 5639 5639 5639 5640 5641 5641 5642 5643
5637 5639 5639 5638 5638 5638 5638 5638 5637 5635 5634 5634 5634 5632 5636 5638 5638 5637 5636 5635 5633 5632 5632 5631 5630 5630 5629 5628 5628 5627 5627 5627 5627 5627 5627 5627 5627 5627 5627 5628 5628 5629 5629 5630
5627 5629 5630 5630 5629 5629 5628 5628 5628 5626 5623 5623 5622 5624 5626 5627 5627 5626 5625 5624 5622 5621 5620 5620 5619 5619 5618 5617 5617 5616 5616 5616 5616 5616 5616 5616 5615 5615 5616 5616 5616 5616 5616 5617
5618 5619 5620 5620 5620 5619 5619 5619 5618 5615 5613 5612 5613 5614 5616 5617 5617 5616 5614 5613 5612 5611 5609 5609 5608 5607 5607 5606 5606 5605 5605 5604 5604 5604 5604 5604 5604 5604 5604 5604 5604 5603 5603 5604
5609 5609 5610 5610 5610 5610 5610 5609 5607 5606 5604 5603 5602 5607 5607 5607 5606 5605 5603 5602 5601 5600 5599 5597 5597 5596 5595 5595 5594 5594 5593 5593 5593 5593 5593 5592 5592 5592 5592 5592 5591 5591 5591 5591
5600 5599 5599 5601 5601 5600 5599 5599 5598 5597 5596 5594 5592 5598 5597 5596 5595 5594 5593 5591 5590 5589 5588 5587 5586 5585 5584 5583 5583 5582 5581 5581 5581 5581 5581 5580 5580 5580 5580 5579 5579 5578 5578 5578
5591 5590 5590 5590 5592 5591 5590 5589 5588 5587 5586 5584 5583 5588 5587 5586 5584 5583 5582 5580 5579 5578 5577 5576 5575 5574 5573 5572 5571 5571 5570 5570 5569 5569 5569 5568 5568 5568 5567 5567 5566 5566 5565 5565
5582 5581 5581 5582 5580 5580 5580 5580 5579 5577 5575 5574 5575 5577 5577 5574 5573 5572 5571 5570 5568 5568 5567 5565 5564 5563 5563 5562 5561 5560 5559 5558 5558 5557 5557 5556 5556 5555 5555 5554 5553 5553 5552 5552
5572 5572 5571 5571 5570 5569 5569 5569 5568 5567 5566 5565 5566 5566 5566 5564 5563 5562 5560 5559 5558 5557 5556 5555 5553 5552 5551 5550 5550 5549 5548 5547 5546 5545 5545 5544 5544 5543 5542 5541 5541 5540 5539 5539
5562 5562 5561 5561 5560 5559 5558 5559 5558 5557 5556 5555 5554 5555 5555 5553 5552 5551 5549 5548 5547 5546 5545 5544 5543 5542 5540 5539 5538 5537 5536 5535 5534 5534 5533 5532 5531 5530 5529 5528 5527 5527 5526 5525
5553 5552 5551 5551 5550 5548 5548 5551 5549 5548 5547 5546 5544 5545 5543 5542 5541 5540 5539 5537 5536 5535 5534 5533 5532 5531 5530 5528 5527 5526 5525 5524 5523 5522 5521 5520 5519 5518 5516 5515 5514 5513 5512 5511
5544 5542 5541 5540 5540 5538 5543 5541 5539 5538 5537 5535 5533 5533 5532 5531 5530 5529 5528 5527 5526 5525 5524 5523 5521 5520 5519 5517 5516 5515 5514 5513 5512 5511 5510 5509 5507 5506 5504 5503 5501 5500 5499 5498
5535 5533 5531 5530 5529 5529 5532 5531 5529 5527 5527 5525 5523 5522 5521 5520 5519 5519 5518 5516 5515 5514 5513 5512 5511 5510 5508 5507 5505 5504 5503 5502 5501 5500 5499 5497 5496 5494 5493 5491 5489 5487 5486 5484
5527 5525 5524 5522 5520 5520 5523 5521 5518 5518 5517 5516 5513 5512 5511 5510 5510 5510 5508 5506 5505 5504 5503 5502 5500 5499 5498 5496 5495 5493 5492 5491 5490 5489 5487 5486 5484 5483 5481 5479 5477 5475 5473 5471
5518 5517 5515 5514 5512 5512 5513 5511 5510 5510 5509 5506 5504 5502 5501 5500 5500 5499 5498 5497 5495 5494 5493 5491 5490 5488 5487 5485 5484 5483 5482 5480 5479 5477 5476 5474 5473 5471 5469 5467 5465 5463 5461 5459
5509 5508 5507 5506 5504 5506 5504 5502 5501 5500 5497 5496 5494 5493 5491 5490 5489 5488 5487 5486 5485 5484 5483 5481 5479 5478 5476 5475 5474 5472 5471 5469 5468 5467 5465 5463 5461 5459 5457 5455 5453 5450 5448 5447
5501 5501 5499 5498 5499 5496 5494 5493 5491 5489 5488 5486 5485 5484 5482 5481 5480 5478 5477 5476 5475 5474 5472 5471 5469 5467 5466 5464 5463 5462 5460 5459 5457 5455 5454 5452 5450 5448 5446 5444 5441 5439 5437 5435
5494 5492 5491 5489 5489 5487 5485 5483 5482 5480 5479 5477 5476 5474 5473 5472 5470 5469 5467 5466 5464 5463 5462 5460 5459 5457 5456 5454 5452 5451 5449 5447 5446 5444 5442 5441 5439 5437 5434 5432 5430 5428 5425 5423
5486 5484 5482 5481 5480 5478 5477 5475 5473 5471 5470 5468 5467 5465 5463 5462 5460 5459 5457 5456 5454 5453 5451 5450 5448 5446 5445 5443 5442 5440 5438 5437 5435 5433 5432 5430 5428 5425 5423 5421 5419 5417 5414 5412
5478 5476 5475 5473 5472 5470 5469 5466 5464 5463 5461 5459 5458 5456 5454 5452 5451 5449 5447 5446 5444 5442 5441 5439 5438 5436 5435 5433 5431 5430 5428 5426 5425 5423 5421 5419 5417 5415 5412 5410 5408 5405 5403 5401